loading
|

THOR AGENA B R/B, 426

Orbit data source: Space-Track

THOR AGENA B R/B, 426 is space debris in LEO originally from a launch on Sat, 29 Sep 1962 UTC via a THOR AGENA B launch vehicle from the Air Force Western Test Range (AFWTR). Debris objects in space refer to the collection of defunct objects orbiting the Earth. Examples of debris include non-operational satellites, rocket bodies, and fragments generated from explosions, collisions, or faulty payload assembly.

Loading next visibility...
Loading greatness...
THOR AGENA B R/B details
Identifier
426, 1962-049B
Orbit
LEO
Last TLE update10 hours ago
Origin
Flag of USGSFC (US)
ManufacturerGSFC
Mission statusUnknown
MissionUnknown
Bus & MotorTAVE, Unknown motor
Mass900 kg wet, 91 kg dry
Launch date (UTC)
1962-09-29 (62 years ago)
Launch vehicle
THOR AGENA B
Launch site
Air Force Western Test Range (AFWTR)
Object type
Payload
Rocket body
Debris
Radar Cross Section5.9 m², Large (>1 m²)

Expand to show TLE details & history

TLE from 10 hours ago
0 THOR AGENA B R/B
1 00426U 62049B   24258.86991035  .00000214  00000-0  23803-3 0  9991
2 00426  80.4734 180.5351 0018751  78.7003 341.4838 13.68651717 92535
Epoch: 2024-09-14T20:52Z
Definitive object data (Epoch: 2024-09-14T20:52:40.254Z)
Latitude58.86439°
Longitude-110.91055°
Altitude1,001.174 km
Speed7.363 km/s
True Right ascension13h 06m 18s
True Declination58° 43' 01"
Sunlit
Object was in daylight at TLE epoch
Predictive object data (real-time)
Latitude-23.72002°
Longitude-131.57698°
Altitude1,015.914 km
Speed7.341 km/s
Apparent Right ascension11h 41m 22s
Apparent Declination-31° 03' 42"
Sunlit
Object is in daylight
Predictive observer data (real-time)
Local Sidereal Time23:38:14
Azimuth355.646° N
Elevation-81.123°
Doppler factor1
Orbital elements
Apogee1,015.521 km
Perigee987.845 km
Semi-major axis7,379.82 km
Eccentricity0.0018751
Inclination80.4734°
RAAN180.5351°
Arg. of periapsis78.7003°
True anomaly341.41541°
Mean anomaly341.4838°
Eccentric anomaly341.44962°
Mean motion3.42353 °/min
BSTAR0.00023803
Period105.15 mins
No data available
Other satellites on launch #49 in the year 1962 (1962-09-29 UTC)

THOR AGENA B R/B Visibility forecast

Observer location: 39.9160978°, -105.1181434

THOR AGENA B R/B is not visible in the next 10 days
Span
Click to sort rows by Start time (UTC) header in descending order
Start Az.
Max El. time (UTC)
Max El. Az.
Max El.
End time (UTC)
End Az.